Weather History for Craig, CO

Change the Weather History Date:

Tuesday, October 16, 2012

  Actual Average Record
Temperature  
Mean Temperature 50 °F 43 °F  
Max Temperature 71 °F 61 °F 77 °F (2011)
Min Temperature 29 °F 25 °F 12 °F (1999)
Degree Days  
Heating Degree Days 15 22  
Month to date heating degree days 297 304  
Since 1 July heating degree days 529 669  
Cooling Degree Days 0 0  
Month to date cooling degree days 0 0  
Year to date cooling degree days 344 142  
Moisture  
Dew Point 32 °F    
Average Humidity 59    
Maximum Humidity 92    
Minimum Humidity 26    
Precipitation  
Precipitation 0.05 in 0.05 in 0.35 in (2006)
Month to date precipitation 0.56 0.91  
Year to date precipitation 5.32 12.87  
Sea Level Pressure  
Sea Level Pressure 29.86 in    
Wind  
Wind Speed 10 mph (West)    
Max Wind Speed 37 mph    
Max Gust Speed 53 mph    
Visibility 10 miles    
Events Rain , Thunderstorm    
T = Trace of Precipitation, MM = Missing Value Source: NWS Daily Summary

Daily Weather History Graph

Daily Weather History Graph

Search for Another Location

Airport:

Trip Planner

Search our weather history database for the weather conditions in past years. The results will help you decide how hot, cold, wet, or windy it might be!

Date:

Astronomy

Oct. 16, 2012 Rise Set
Actual Time 7:22 AM MDT 6:27 PM MDT
Civil Twilight 6:55 AM MDT 6:55 PM MDT
Nautical Twilight 6:23 AM MDT 7:26 PM MDT
Astronomical Twilight 5:51 AM MDT 7:58 PM MDT
Moon 8:49 AM MDT (10/16) 7:14 PM MDT (10/16)
Length of Visible Light 12h 00m
Length of Day
11h 04m
New Moon, 2% of the Moon is Illuminated
Oct 16
New Moon
Oct 21
First Quarter
Oct 29
Full
Nov 6
Last Quarter
Nov 13
New

Hourly Weather History & Observations

Time (MDT) Temp. Windchill Dew Point Humidity Pressure Visibility Wind Dir Wind Speed Gust Speed Precip Events Conditions
12:53 AM 39.9 °F - 32.0 °F 73% 30.01 in 10.0 mi Calm Calm - N/A   Partly Cloudy
1:53 AM 39.0 °F - 30.9 °F 73% 30.01 in 10.0 mi Calm Calm - N/A   Clear
2:53 AM 33.1 °F - 28.9 °F 85% 30.02 in 10.0 mi Calm Calm - N/A   Clear
3:53 AM 34.0 °F 31.0 °F 28.9 °F 82% 30.00 in 10.0 mi SE 3.5 mph - N/A   Clear
4:53 AM 32.0 °F 27.5 °F 28.0 °F 85% 30.01 in 10.0 mi ESE 4.6 mph - N/A   Clear
5:53 AM 30.2 °F - 28.4 °F 93% 30.08 in 10.0 mi Calm Calm - N/A   Clear
6:53 AM 30.0 °F - 26.1 °F 85% 30.03 in 10.0 mi Calm Calm - N/A   Clear
7:53 AM 30.9 °F - 28.0 °F 89% 30.05 in 10.0 mi Calm Calm - N/A   Clear
8:53 AM 37.0 °F - 30.9 °F 79% 30.02 in 10.0 mi Calm Calm - N/A   Clear
9:53 AM 46.0 °F - 34.0 °F 63% 29.96 in 10.0 mi Calm Calm - N/A   Clear
10:53 AM 52.0 °F - 35.1 °F 53% 29.93 in 9.0 mi Calm Calm - N/A   Clear
11:53 AM 64.9 °F - 32.0 °F 29% 29.82 in 10.0 mi West 23.0 mph 29.9 mph N/A   Partly Cloudy
12:53 PM 66.9 °F - 30.0 °F 25% 29.77 in 10.0 mi West 18.4 mph 32.2 mph N/A   Partly Cloudy
1:53 PM 66.0 °F - 30.0 °F 26% 29.70 in 10.0 mi WSW 20.7 mph 29.9 mph N/A   Scattered Clouds
2:53 PM 66.0 °F - 30.9 °F 27% 29.67 in 10.0 mi West 25.3 mph 33.4 mph N/A   Overcast
3:53 PM 70.0 °F - 33.1 °F 26% 29.63 in 10.0 mi West 28.8 mph 35.7 mph N/A   Overcast
4:53 PM 66.0 °F - 33.1 °F 29% 29.64 in 10.0 mi WSW 18.4 mph 29.9 mph N/A   Overcast
5:53 PM 62.1 °F - 37.0 °F 39% 29.64 in 10.0 mi West 15.0 mph 20.7 mph 0.00 in   Overcast
6:50 PM 57.2 °F - 39.2 °F 51% 29.79 in 10.0 mi NNW 36.8 mph 52.9 mph 0.00 in Rain , Thunderstorm Light Thunderstorms and Rain
6:53 PM 53.1 °F - 42.1 °F 66% 29.75 in 10.0 mi NNW 29.9 mph 52.9 mph 0.00 in Rain , Thunderstorm Light Thunderstorms and Rain
7:09 PM 48.2 °F - 42.8 °F 82% 29.83 in 8.0 mi NNW 18.4 mph 39.1 mph 0.03 in Rain Light Rain
7:53 PM 48.0 °F - 39.9 °F 74% 29.88 in 10.0 mi West 5.8 mph 26.5 mph 0.03 in   Overcast
8:22 PM 44.6 °F 35.9 °F 39.2 °F 81% 29.90 in 7.0 mi WNW 23.0 mph 42.6 mph 0.02 in Rain Rain
8:53 PM 45.0 °F 38.2 °F 39.9 °F 82% 29.86 in 10.0 mi SW 15.0 mph - 0.02 in Rain Light Rain
9:53 PM 46.9 °F - 36.0 °F 66% 29.79 in 10.0 mi SW 12.7 mph - 0.00 in   Overcast
10:53 PM 46.0 °F 41.9 °F 30.9 °F 56% 29.81 in 10.0 mi West 8.1 mph - N/A   Scattered Clouds
11:53 PM 42.1 °F 37.1 °F 23.0 °F 47% 29.79 in 10.0 mi WSW 8.1 mph - N/A   Clear